Showing default

STRIX-9, 100561

Orbit data source: Space-Track

STRIX-9, 100561 is a payload satellite owned by Synspective (JP) in LEO that was launched on Wed, 02 Sep 2026 UTC launched from the Rocket Lab Launch Complex (RLLC). Payload-class satellites include a variety of spacecraft equipped with specific instruments for various scientific and technological missions. These include communications satellites like Starlink; space stations such as the ISS; scientific satellites like the Hubble; Earth observation satellites from companies like Planet Labs, Umbra, and HawkEye 360; GPS; miniature CubeSats for education and research; and military/defense satellites.

Loading next visibility...
Identifier
100561, 2026-201A
Orbit
LEO
Country
Flag of JPJP / JPN
Related business
Manufacturer
Synspective
Mission
Operational spacecraft
Bus & Motor
STRIX, Unknown motor
Mass
150 kg wet, 150 kg dry
Launch date (UTC)
2026-09-02 (3 days ago)
Launch vehicle
Unknown
Launch site
Rocket Lab Launch Complex (RLLC)
Object type
Payload
Rocket body
Debris
Shape & HBR
BOX + 2 PAN, 2.4 m
Radar Cross Section
RCS unknown

Expand to show TLE details & history
Last TLE update: 7 hours ago

TLE from 7 hours ago
0 STRIX-9
1 A0561U 26201A   26247.84668227  .00001846  00000-0  14437-3 0  9998
2 A0561  38.0502  57.6447 0031818 298.5443  61.2117 15.02161675   351
Epoch: 2026-09-04T20:19Z
TLE epoch observation values (Epoch: 2026-09-04T20:19:13.348Z)
Latitude
0.00001°
Longitude
128.87445°
Altitude
548.895 km
Speed
7.595 km/s
True Right ascension
03h 50m 34s
True Declination
0° 00' 00"
Sunlit
Object was in daylight at epoch
Visualization orbit readout
Latitude
Unknown
Longitude
Unknown
Altitude
Unknown
Speed
Unknown
Apparent Right ascension
Unknown
Apparent Declination
Unknown
Sunlit
N/A
Visualization observer readout
Local Sidereal Time
19:42:18
Azimuth
Unknown
Elevation
Unknown
Doppler factor
Unknown
Orbital elements
Apogee altitude
585.053 km
Perigee altitude
540.882 km
Semi-major axis
6,941.105 km
Eccentricity
0.00318
Inclination
38.0502°
RAAN
57.6447°
Arg. of periapsis
298.5443°
True anomaly
61.53186°
Mean anomaly
61.2117°
Eccentric anomaly
61.37172°
Mean motion
3.75319 °/min
Orbital period
95.92 mins
BSTAR
0.00014437
Loading maneuver chart data...
Computing Atmospheric mass density...
Loading historical data...
Loading historical data...
Loading historical data...
Loading historical data...
Loading historical data...
Loading historical data...
Loading historical data...
Other satellites on launch #201 in the year 2026 (2026-09-02 UTC)

Documentation

Showing up to 5 results
|